Hlavní strana
METAR-TAF:

METAR-TAF

Letiště :

Moore County Airport

Pinehurst / Southern Pines, Severní Karolína, Spojené státy americké

zeměpisná šířka: 35-14N, zeměpisná délka: 079-24W, výška: 141 m

Aktuální stav počasí

Zpráva byla vytvořena před 36 minutami, v 13:32 UTC
Východní vítr 4 kt
Teplota 6°C
Vlhkost vzduchu 81%
Tlak 1027 hPa
Viditelnost: 16.1 km
Skoro jasno ve výšce 300 ft

METAR: KSOP 251332Z AUTO 08004KT 10SM FEW003 06/03 A3034 RMK AO2 PNO $

Čas: 09:08 (14:08 UTC)


TAF: chybějící

Stav a předpovědi počasí z více než 4 000 letišť (zprávy METAR a TAF).

Červené a žluté tečky na mapě představují dostupné meteorologické stanice.

Když kurzor umístíte na tečku, zobrazí se název stanice.

Pak kliknutím zobrazíte stav a předpověď počasí.

Chcete-li změnit mapu, kliknutím na zelené tlačítko se znaménkem +mapu přiblížíte, kliknutím na zelené tlačítko se znaménkem – mapu oddálíte a kliknutím na zelené šipky přejdete na sousední mapy.


METAR-TAF: